Theta_e
323 321 321 321 321 321 322 322 322 322 323 323 322 322 322 322 322 322 323 323 324 323 322 322 322 321 318 306 306 323 330 331 317 314 311 310 308 307 303 304 305 303 304 306 307 307 306
326 325 324 324 324 324 323 323 323 323 324 323 322 322 321 321 322 322 322 323 323 322 321 321 322 320 311 301 313 324 325 322 315 313 311 311 308 309 305 304 303 305 304 304 305 304 304
326 326 326 326 325 324 323 324 324 324 324 323 322 321 321 321 322 322 322 322 321 320 321 321 322 318 307 307 315 322 321 316 315 314 310 312 311 307 307 303 306 303 299 302 303 304 302
327 327 326 326 325 324 324 324 324 324 323 322 321 320 320 320 321 321 322 322 318 320 320 320 321 315 305 308 316 315 314 311 314 313 311 311 311 308 305 306 302 299 300 295 302 301 302
327 327 326 326 326 325 324 324 324 324 323 322 321 320 320 320 320 320 321 317 319 320 320 320 316 311 304 310 306 309 311 307 310 309 309 308 309 305 304 299 297 299 293 296 298 303 300
327 327 326 326 326 325 325 324 324 324 323 322 321 321 321 321 320 320 319 314 320 317 318 317 311 303 303 303 306 307 309 309 306 307 304 304 303 300 300 297 291 295 296 297 296 301 300
327 326 326 326 325 325 325 324 324 324 324 323 322 322 322 321 321 321 317 315 314 310 309 306 308 304 308 306 308 305 307 305 306 304 298 302 297 295 299 301 299 298 296 295 298 301 299
326 326 325 325 325 325 324 324 325 326 325 324 322 323 323 322 321 319 316 312 306 305 304 314 311 308 305 306 302 303 306 302 301 297 300 297 294 300 302 298 297 296 294 294 298 301 296
325 325 325 325 325 325 324 324 325 325 325 323 322 322 322 321 321 319 313 308 311 309 302 308 306 304 304 305 303 304 304 303 299 298 297 296 300 301 298 297 295 295 294 294 294 297 298
325 325 324 324 324 323 323 323 323 323 322 321 322 321 321 321 316 320 314 310 311 309 299 302 301 301 301 302 299 301 304 302 300 298 300 298 300 296 296 294 296 292 298 296 294 292 290
325 324 324 323 323 322 322 321 321 320 319 319 320 321 321 317 322 317 311 311 311 307 288 301 297 305 302 298 298 297 302 301 297 297 297 295 295 293 294 295 297 294 295 294 294 292 292
325 324 323 323 322 321 319 318 316 316 315 315 317 319 318 319 322 315 313 310 309 297 287 299 297 297 296 297 296 298 299 301 299 296 297 296 296 296 297 297 296 295 294 294 294 293 287
325 324 322 320 318 316 316 315 313 312 311 310 313 318 315 318 315 315 313 313 298 290 301 297 295 295 295 294 295 296 296 295 295 292 293 297 297 297 295 293 295 293 291 287 286 287 286
323 318 316 315 315 313 312 311 310 309 308 308 310 317 316 317 311 309 312 304 288 294 296 301 299 299 297 299 297 296 296 295 299 295 293 291 289 296 296 295 294 294 294 288 281 283 287
317 316 314 313 312 311 310 308 307 306 305 307 311 317 315 320 315 312 308 291 291 296 299 298 298 295 295 298 296 297 297 295 298 299 291 291 290 299 295 296 295 292 289 293 286 287 284
314 312 311 310 309 308 307 305 304 303 303 305 310 309 309 316 313 313 300 292 295 300 300 300 293 296 292 295 294 295 294 297 296 296 296 294 287 295 295 295 297 293 297 287 287 278 278
310 309 308 307 306 305 304 302 302 302 302 305 306 297 306 312 315 305 290 292 295 300 301 297 295 294 294 293 294 293 293 297 298 297 296 294 291 290 294 292 290 291 288 289 288 286 280
308 307 306 304 303 303 302 302 301 302 304 304 303 293 310 314 298 298 293 295 296 297 300 298 298 296 294 294 292 292 292 294 300 298 293 296 291 285 288 294 296 294 290 290 283 282 285
305 304 304 303 302 301 301 300 300 300 301 303 297 298 309 309 290 293 296 295 297 295 296 296 295 297 296 292 289 292 293 297 298 295 293 294 288 281 283 288 293 290 292 292 291 287 283
304 303 302 302 301 301 300 299 299 299 298 304 297 289 298 300 301 294 292 292 292 298 296 296 294 295 293 291 293 289 290 294 297 296 295 295 288 284 280 283 288 285 287 289 287 281 282
304 303 303 302 302 301 301 299 299 299 298 299 295 290 294 288 292 294 293 291 289 289 294 294 291 291 290 286 287 287 290 290 293 293 292 291 283 285 285 286 286 285 284 285 283 285 280
302 303 302 302 301 301 301 300 298 300 297 295 289 289 292 292 293 292 291 289 288 289 289 288 288 290 290 287 287 284 286 286 286 288 288 289 281 283 279 283 283 281 283 284 284 285 284
302 302 302 302 301 301 301 300 299 300 296 291 293 293 291 288 289 288 289 289 288 291 289 289 289 287 285 287 289 289 289 289 288 285 283 283 281 278 274 280 279 275 279 281 283 285 283
302 302 302 302 302 301 301 301 301 300 298 294 294 293 287 283 285 285 286 288 287 288 286 286 287 286 287 290 288 286 285 284 284 284 285 280 279 279 274 275 267 278 284 283 281 281 283
301 301 302 302 301 302 301 302 301 301 300 295 295 291 287 283 284 284 284 285 287 286 285 285 286 287 288 284 279 276 276 275 278 281 281 283 279 275 271 271 275 278 280 279 278 277 283
301 302 302 302 302 301 302 302 302 301 301 298 295 296 290 284 282 285 283 284 282 282 281 281 285 287 286 282 278 271 270 273 272 275 279 280 281 277 274 269 266 275 280 281 280 272 281
302 302 302 303 302 302 302 301 301 301 301 299 296 297 291 284 287 286 283 282 285 283 281 281 281 281 285 279 274 272 272 276 270 271 273 273 274 272 272 270 273 282 280 281 270 274 281
301 301 302 302 302 302 302 302 302 302 302 299 297 298 292 286 287 287 287 284 284 284 280 278 280 279 279 275 275 274 273 275 273 275 274 272 272 271 271 268 266 280 278 274 279 282 282
301 301 301 302 302 301 302 302 302 301 302 301 292 296 297 288 288 292 291 292 290 289 286 281 284 280 282 278 278 278 274 275 273 269 277 270 275 273 274 273 280 281 280 283 284 282 282
Wind_Speed
11 11 11 10 9 9 7 6 6 5 5 5 5 6 6 7 9 10 10 12 12 12 11 10 8 9 6 6 7 5 7 8 12 9 10 9 9 9 10 6 7 14 13 14 13 13 13
12 13 13 11 11 10 8 8 7 6 6 5 5 6 7 8 9 11 12 14 14 13 12 10 7 7 6 10 4 6 7 9 8 11 10 10 4 7 11 11 11 10 11 16 17 16 15
14 14 12 11 10 9 7 7 7 7 6 5 5 5 8 9 11 12 13 15 15 14 9 6 7 5 6 10 3 5 6 4 4 8 9 9 5 7 4 9 3 8 13 16 20 18 11
12 10 10 9 9 8 8 7 7 7 6 5 4 5 6 8 11 13 14 15 11 9 6 3 7 5 7 2 4 4 4 3 3 2 5 2 5 8 6 2 6 9 12 11 8 2 4
12 12 11 10 10 9 9 8 8 7 6 5 5 5 6 8 10 13 14 10 1 5 5 8 6 5 4 2 2 2 3 3 6 3 3 3 5 7 5 9 11 13 13 16 13 8 4
13 13 12 11 11 10 9 9 8 8 8 6 6 5 6 8 10 13 13 4 4 3 5 4 2 5 5 1 3 3 1 7 3 8 5 5 6 8 9 11 13 16 18 17 18 18 13
14 14 13 12 12 11 10 10 10 10 9 7 7 6 6 7 9 12 11 5 5 6 6 6 5 8 5 4 3 2 2 6 6 8 7 8 9 10 16 16 19 20 20 21 20 19 21
16 15 14 14 13 12 12 10 10 10 9 7 7 6 7 6 8 12 6 4 4 3 9 10 13 9 2 1 3 6 6 8 7 10 7 6 12 16 16 7 14 16 19 20 19 13 1
17 17 16 15 14 13 12 12 11 10 9 7 7 6 5 5 8 4 3 3 1 2 7 6 2 4 1 6 7 6 10 4 8 11 13 17 14 4 10 14 16 17 17 19 19 17 13
18 17 17 16 14 13 13 12 11 11 9 8 7 6 5 4 3 1 2 4 2 2 7 5 5 3 3 2 4 3 2 4 6 9 13 12 9 8 11 15 14 16 13 9 11 8 11
19 17 16 16 15 13 13 11 11 8 6 6 6 5 4 3 4 3 5 4 2 4 9 3 3 2 2 2 2 3 1 3 10 5 4 1 5 3 8 8 4 8 3 7 8 11 14
18 18 16 16 15 10 13 15 12 10 9 3 3 6 6 4 3 4 6 4 3 6 9 2 2 1 2 3 2 2 1 3 2 5 9 17 3 3 9 1 7 3 7 12 11 8 11
16 15 12 15 18 17 17 14 14 12 9 5 2 6 5 3 2 7 5 3 5 7 2 4 3 2 3 1 2 3 4 6 5 6 7 4 9 4 3 7 5 5 9 8 9 11 19
17 22 22 21 19 18 17 17 13 10 6 4 3 7 1 1 3 3 3 2 10 2 7 3 2 2 4 4 2 2 4 9 8 6 10 14 17 5 9 5 8 12 10 8 14 16 16
20 22 22 20 20 19 17 13 11 12 8 5 4 2 1 3 4 2 3 5 5 9 7 7 6 8 15 5 4 4 8 9 5 5 8 11 12 7 3 2 3 3 6 7 6 8 9
21 20 22 20 19 17 14 12 10 10 8 4 2 0 2 2 5 3 5 6 11 8 1 4 12 9 10 8 7 6 5 4 0 1 1 3 13 4 4 1 8 8 6 6 5 5 15
19 19 15 16 16 12 14 9 8 8 7 3 3 2 2 4 1 2 6 8 9 8 2 5 10 14 12 10 8 6 6 5 8 3 1 3 4 17 9 9 14 9 8 11 12 10 13
15 17 15 12 11 14 9 9 6 5 9 8 5 4 5 7 7 6 12 6 4 8 4 8 7 13 16 14 13 15 16 13 4 6 8 9 5 10 22 19 17 13 18 18 8 6 10
14 15 14 14 12 12 11 6 5 5 4 4 4 3 2 2 9 12 9 10 12 7 8 7 8 9 8 6 6 11 11 2 5 2 3 4 3 6 10 13 5 5 9 10 13 5 17
13 14 13 12 11 9 7 7 6 4 3 4 5 5 4 3 8 11 17 17 15 8 14 14 9 9 10 12 11 8 8 1 4 2 3 0 7 14 13 17 18 14 13 7 6 6 9
14 14 14 13 13 12 13 8 4 4 3 3 3 4 4 8 11 15 12 4 15 16 8 5 8 16 15 13 13 16 13 10 4 4 2 5 11 15 18 21 22 21 21 25 26 25 25
7 11 12 12 11 11 13 12 7 5 4 1 3 3 2 2 11 18 16 13 15 11 8 10 13 9 10 11 9 4 9 10 13 9 12 9 12 12 18 20 20 22 25 26 23 24 26
12 13 13 13 14 12 11 12 10 11 2 1 1 1 3 5 7 9 14 17 11 15 4 4 6 6 7 8 4 2 4 6 9 7 7 8 6 7 19 15 18 18 22 23 25 24 25
15 15 15 15 14 13 12 15 14 14 8 1 2 2 3 4 9 11 4 11 9 12 6 6 5 5 4 5 4 5 7 11 15 18 15 13 12 9 15 12 21 13 13 14 16 14 11
15 18 19 18 18 17 16 14 15 14 13 3 3 3 3 3 8 10 9 8 7 6 6 7 7 2 4 1 3 4 3 3 8 16 15 17 15 9 10 14 18 25 20 18 15 16 8
18 20 22 20 18 18 18 18 20 17 18 5 4 2 1 1 6 4 10 12 8 8 5 5 4 3 6 5 3 4 6 2 4 4 0 6 14 12 11 15 18 15 1 1 3 12 7
19 18 16 18 19 19 18 19 19 20 21 9 4 8 2 2 3 8 10 10 6 8 2 4 6 4 3 5 5 6 6 5 6 5 5 4 5 15 14 16 12 5 5 3 8 8 8
19 18 17 18 18 20 19 20 22 22 20 11 5 10 7 4 5 11 8 5 6 8 6 5 5 2 5 6 6 6 6 7 6 11 8 9 8 6 5 7 13 4 5 7 3 3 5
20 20 19 20 22 19 20 21 20 20 21 19 4 6 4 3 4 4 14 13 12 10 5 6 1 4 7 6 5 4 5 4 7 8 8 8 11 7 8 6 3 10 10 10 11 12 15
Wind_Direction
209 212 215 222 231 243 244 246 259 270 285 298 310 317 325 327 327 328 325 320 315 310 307 301 298 306 279 230 256 111 126 139 166 192 200 201 221 244 256 266 278 246 268 278 282 276 267
222 222 224 225 230 237 245 250 258 270 280 289 303 315 323 325 323 326 325 320 317 309 303 290 276 296 244 252 72 127 139 157 191 205 216 219 234 266 288 282 256 330 298 283 277 274 273
229 224 231 239 244 233 248 256 265 266 275 287 307 324 330 330 326 324 321 320 317 311 305 288 220 234 244 258 58 121 147 177 209 223 225 228 265 230 332 260 297 286 295 296 280 269 239
232 236 227 235 241 241 243 245 252 258 270 282 296 314 324 324 323 320 321 319 320 321 316 206 179 218 263 41 100 157 168 128 175 202 264 282 225 257 250 353 250 267 272 278 290 90 145
224 229 228 233 238 234 235 239 242 247 256 265 279 295 309 319 318 316 324 322 20 38 94 136 183 244 265 142 175 89 235 208 141 145 87 145 206 239 197 241 269 240 268 281 301 315 130
219 225 223 224 228 230 232 235 242 246 243 248 260 274 298 316 319 318 325 262 194 208 199 227 257 229 166 83 111 101 86 164 148 147 138 185 213 232 229 241 254 284 293 291 296 299 224
220 223 225 226 225 226 229 230 237 242 249 247 253 264 281 302 318 324 324 238 229 199 211 281 306 284 260 94 168 138 159 164 143 193 214 195 219 220 247 240 254 276 286 284 283 292 297
219 221 222 226 227 227 228 231 237 243 243 247 245 258 272 295 318 318 285 18 46 359 297 263 261 271 247 325 244 164 180 193 202 219 161 187 235 251 267 302 287 281 281 281 288 288 296
219 221 221 222 227 226 230 229 230 231 237 232 216 229 258 288 307 281 13 60 156 234 256 254 220 263 268 214 249 196 190 202 217 228 213 246 267 328 268 251 261 268 272 280 285 310 283
221 222 221 221 224 225 235 230 226 213 197 193 199 205 230 274 282 64 125 123 172 290 270 184 169 131 165 251 219 26 283 268 217 262 250 260 275 249 246 253 259 272 275 290 283 282 295
221 222 224 220 219 222 224 221 187 177 172 186 201 194 235 238 356 257 81 122 148 236 283 60 125 63 101 261 40 84 49 212 256 231 234 12 157 189 226 238 220 266 337 277 271 270 285
220 218 221 221 221 200 161 137 135 136 119 131 147 170 175 215 228 88 126 139 241 230 243 96 72 81 190 172 108 113 242 252 329 252 236 263 95 233 249 273 224 357 282 262 256 264 260
217 212 194 162 137 131 132 134 127 127 124 131 152 176 194 318 118 141 147 228 237 230 110 103 38 334 315 71 179 212 178 202 272 291 264 285 249 183 267 265 208 225 260 293 273 253 265
171 135 129 126 123 124 125 125 116 111 92 47 103 147 150 27 126 159 131 213 230 320 258 125 111 319 301 12 125 196 258 262 216 252 288 289 294 191 153 249 306 292 271 270 287 281 292
134 132 130 132 128 127 120 114 111 108 77 46 157 103 100 174 163 239 175 212 212 213 212 234 246 277 273 168 243 300 269 297 324 301 271 308 271 328 222 263 286 62 242 349 326 296 282
120 122 124 126 123 124 120 133 128 107 98 71 95 57 209 117 175 233 214 237 229 246 313 253 234 222 234 205 249 253 279 80 74 355 37 333 298 268 80 256 238 239 315 296 212 260 268
110 110 109 114 120 121 126 129 120 110 118 128 101 141 177 140 179 216 224 232 270 232 238 239 256 263 259 261 224 199 240 261 276 241 347 9 237 276 298 256 267 258 251 229 263 259 270
118 122 121 125 138 132 137 134 116 90 159 168 170 211 138 165 182 210 230 228 237 210 200 251 271 262 266 271 268 254 248 251 169 354 284 292 271 261 277 289 296 281 266 269 257 233 237
140 132 141 147 160 143 136 137 108 88 208 159 195 180 126 208 211 224 230 239 239 214 213 200 226 230 224 241 247 252 257 4 19 343 304 47 214 287 292 286 174 244 289 284 284 297 257
158 150 159 164 169 150 169 167 151 104 19 264 163 176 164 230 244 241 226 233 226 220 237 239 244 246 244 243 242 260 249 155 22 319 65 10 258 248 257 278 306 290 288 281 254 265 287
187 183 176 180 188 184 172 178 180 135 76 279 209 199 184 194 218 223 238 245 231 220 224 229 235 239 240 248 247 247 261 268 247 171 228 250 256 265 264 270 279 285 282 275 271 272 270
196 217 197 196 187 209 191 186 184 159 127 231 212 188 222 237 218 211 211 226 232 211 181 214 233 197 192 227 216 262 304 282 268 268 246 260 272 286 278 274 273 274 269 267 274 276 275
215 215 218 214 207 206 206 202 196 168 167 251 127 246 272 157 188 205 214 224 229 228 176 268 253 218 226 262 343 18 278 278 273 271 268 270 263 262 265 280 288 269 257 266 265 264 268
223 223 219 216 219 220 215 208 209 184 190 182 177 231 223 202 197 206 210 228 210 210 212 168 175 190 92 75 339 288 268 262 259 255 243 253 256 259 272 284 259 268 285 286 285 292 296
242 232 224 217 214 212 220 217 211 200 182 196 159 225 206 213 209 205 207 196 171 167 203 190 188 76 130 117 243 272 214 274 246 238 245 234 251 259 252 250 278 290 286 289 295 291 313
237 227 230 225 222 219 220 210 204 208 196 195 199 185 142 104 225 216 200 198 187 199 166 199 94 86 177 190 165 214 244 18 260 277 145 242 238 240 245 258 265 283 38 18 299 276 119
237 238 229 211 214 211 223 226 218 211 200 195 200 185 163 225 235 189 192 193 185 186 165 135 156 143 262 178 196 223 243 195 250 223 230 202 236 232 244 255 267 264 92 135 242 299 151
239 227 223 230 227 221 213 214 215 220 213 191 201 190 189 211 229 204 198 161 165 192 179 131 141 172 178 210 211 215 234 217 248 252 260 246 248 216 220 262 269 83 128 227 332 179 249
238 242 242 227 228 233 232 221 215 217 217 190 207 194 213 210 312 264 237 238 220 199 200 191 119 146 183 202 202 215 199 215 215 243 218 241 236 256 231 254 251 190 246 260 276 277 289